Flag for Canada Weather past 2 weeks in Fredericton, New Brunswick, Canada

Now
52 °F

Overcast.


Feels Like: 49 °F
Forecast: 46 / 58 °F
Wind: 7 mph from Northeast

Location: Fredericton

Current Time: Oct 1, 2014 at 10:00:11 AM

Latest Report: Oct 1, 2014 at 9:00 AM


Visibility: 9 mi

Pressure: 30.17 "Hg

Humidity: 88%

Dew point: 48 °F

Location of FrederictonLocation

Historic Weather in Fredericton — Graph

°F

Fredericton temperature yesterday

Maximum temperature yesterday: 55 °F (at 5:00 PM)
Minimum temperature yesterday: 45 °F (at 3:00 AM)
Average temperature yesterday: 49 °F

Past Weeks' High & Low Weather Summary

 TemperatureHumidityPressure
High84 °F (Sep 28, 4:00 PM)100% (Sep 16, 8:00 AM)30.65 "Hg (Sep 16, 8:00 AM)
Low32 °F (Sep 19, 7:00 AM)24% (Sep 19, 4:00 PM)29.40 "Hg (Sep 22, 6:01 AM)
Average55 °F79%30.06 "Hg
* Reported Sep 16 8:00 AM — Oct 1 8:00 AM, Fredericton, Weather by CustomWeather, © 2014

Note: Actual official high and low records may vary slightly from our data, if they occured in-between our weather recording intervals... More about our weather records

Advertising

Fredericton weather history for previous 24 hours

 ConditionsComfort  
Time TempWeatherWind HumidityBarometerVisibility
8:00 AM
Oct 1
52 °FMostly cloudy.7 mph94%30.16 "Hg9 mi
7:00 AM50 °FMostly cloudy.3 mph94%30.15 "Hg9 mi
6:00 AM50 °FOvercast.6 mph94%30.13 "Hg9 mi
5:00 AM50 °FOvercast.3 mph94%30.13 "Hg9 mi
4:00 AM50 °FOvercast.3 mph94%30.12 "Hg9 mi
3:03 AM50 °FLow clouds.5 mph94%30.12 "Hg9 mi
3:00 AM48 °FLow clouds.5 mph100%30.12 "Hg9 mi
2:49 AM48 °FMostly cloudy.No wind94%30.11 "Hg9 mi
2:00 AM48 °FPassing clouds.2 mph94%30.11 "Hg9 mi
1:00 AM48 °FPassing clouds.6 mph100%30.10 "Hg9 mi
12:00 AM50 °FOvercast.7 mph94%30.11 "Hg9 mi
11:00 PM
Sep 30
52 °FMostly cloudy.6 mph94%30.11 "Hg9 mi
10:03 PM52 °FMostly cloudy.5 mph94%30.11 "Hg9 mi
9:00 PM52 °FOvercast.8 mph94%30.09 "Hg9 mi
8:00 PM54 °FOvercast.8 mph88%30.08 "Hg9 mi
7:00 PM55 °FOvercast.6 mph88%30.07 "Hg9 mi
6:00 PM55 °FOvercast.5 mph88%30.06 "Hg9 mi
5:00 PM55 °FOvercast.3 mph82%30.07 "Hg9 mi
4:00 PM54 °FOvercast.3 mph88%30.07 "Hg9 mi
3:00 PM54 °FOvercast.2 mph88%30.08 "Hg9 mi
2:00 PM54 °FOvercast.3 mph88%30.09 "Hg9 mi
12:00 PM48 °FLow clouds.7 mph94%30.11 "Hg9 mi
11:00 AM48 °FLow clouds.9 mph94%30.13 "Hg9 mi
10:00 AM46 °FFog.7 mph93%30.13 "Hg6 mi
Weather by CustomWeather, © 2014

See weather overviewHow to use our weather pages